Location: Unspecified
(49.2170°N, 0.0000°E)
Time: 14:12:48
(UTC+00:00)

Vanguard 3 - Pass Details

Date: 29 January 2021
Orbit: 508 x 3261 km, 33.3° (Epoch: 28 February)

Event Time Altitude Azimuth Distance (km) Brightness Sun altitude
Rises 02:24:19 0° 214° (SW) 2,977 - -49.0°
Reaches altitude 10° 02:27:18 10° 190° (S) 2,342 - -48.7°
Maximum altitude 02:30:26 15° 155° (SSE) 2,309 - -48.2°
Drops below altitude 10° 02:34:26 10° 122° (ESE) 3,140 - -47.7°
Exits shadow 02:34:54 - 119° (ESE) 3,272 10.4 -47.7°
Sets 02:39:32 0° 103° (ESE) 4,722 11.5 -47.0°
